Flag for U.S.A. Weather past 2 weeks in Jefferson City, Missouri, U.S.A.

Now
71 °F

Fog.


Feels Like: 65 °F
Forecast: 69 / 89 °F
Wind: 5 mph from Southeast

Location: Jefferson City Memorial Airport

Current Time: Aug 31, 2015 at 4:11:30 AM

Latest Report: Aug 31, 2015 at 2:53 AM


Visibility: 4 mi

Pressure: 29.94 "Hg

Humidity: 96%

Dew point: 70 °F

Location of Jefferson CityLocation

Historic Weather in Jefferson City — Graph

°F

Jefferson City temperature yesterday

Maximum temperature yesterday: 86 °F (at 2:53 PM)
Minimum temperature yesterday: 66 °F (at 6:01 AM)
Average temperature yesterday: 76 °F

Past Weeks' High & Low Weather Summary

 TemperatureHumidityPressure
High90 °F (Aug 16, 4:53 PM)100% (Aug 25, 6:53 AM)30.19 "Hg (Aug 25, 6:53 AM)
Low52 °F (Aug 24, 5:53 AM)30% (Aug 24, 3:53 PM)29.65 "Hg (Aug 18, 6:53 PM)
Average71 °F73%29.98 "Hg
* Reported Aug 16 2:53 AM — Aug 31 2:53 AM, Jefferson City, Weather by CustomWeather, © 2015

Note: Actual official high and low records may vary slightly from our data, if they occured in-between our weather recording intervals... More about our weather records

Advertising

Jefferson City weather history for previous 24 hours

 ConditionsComfort  
Time TempWeatherWind HumidityBarometerVisibility
2:53 AM
Mon, Aug 31
71 °FFog.5 mph96%29.94 "Hg4 mi
1:53 AM72 °FFog.No wind91%29.95 "Hg6 mi
12:53 AM72 °FFog.5 mph93%29.95 "Hg6 mi
11:53 PM
Sun, Aug 30
74 °FClear.No wind91%29.94 "Hg7 mi
10:53 PM75 °FPassing clouds.No wind90%29.94 "Hg8 mi
9:53 PM76 °FPartly cloudy.5 mph88%29.95 "Hg9 mi
8:53 PM78 °FClear.5 mph79%29.94 "Hg10 mi
7:53 PM80 °FSunny.3 mph76%29.93 "Hg10 mi
6:53 PM83 °FScattered clouds.6 mph68%29.92 "Hg10 mi
5:53 PM84 °FPassing clouds.5 mph65%29.92 "Hg10 mi
4:53 PM84 °FPartly sunny.5 mph63%29.93 "Hg10 mi
3:53 PM86 °FPartly sunny.6 mph57%29.93 "Hg10 mi
2:53 PM86 °FOvercast.3 mph59%29.96 "Hg10 mi
1:53 PM85 °FPartly sunny.5 mph59%29.96 "Hg10 mi
12:53 PM83 °FPassing clouds.6 mph61%29.98 "Hg10 mi
11:53 AM82 °FSunny.3 mph65%29.99 "Hg10 mi
10:53 AM79 °FPartly sunny.No wind67%30.01 "Hg10 mi
9:53 AM74 °FBroken clouds.6 mph82%30.01 "Hg10 mi
8:53 AM71 °FOvercast.3 mph84%30.01 "Hg10 mi
7:53 AM68 °FFog.6 mph96%30.00 "Hg6 mi
7:00 AM66 °FFog.6 mph100%30.02 "Hg0 mi
6:01 AM66 °FFog.No wind96%30.01 "Hg2 mi
5:02 AM68 °FFog.No wind93%30.00 "Hg4 mi
Weather by CustomWeather, © 2015

See weather overviewHow to use our weather pages